Location: Auttagershofen
(48.1940°N, 10.0237°E)
Time: 09:13:44
(UTC+00:00)

SJ-12 - Pass Details

Date: 18 January 2026
Orbit: 514 x 525 km, 97.8° (Epoch: 19 February)

Event Time Altitude Azimuth Distance (km) Brightness Sun altitude
Rises 05:53:00 0° 16° (NNE) 2,673 7.3 -11.5°
Reaches altitude 10° 05:55:09 10° 20° (NNE) 1,777 6.4 -11.2°
Maximum altitude 05:58:56 60° 101° (E) 604 4.4 -10.6°
Drops below altitude 10° 06:02:41 10° 182° (S) 1,754 6.6 -10.0°
Sets 06:04:48 0° 186° (S) 2,634 7.5 -9.7°
